Regional Weather Roundup
Issued by NWS

Home | Current Version | Previous Version | Text Only | Print | Product List | Glossary Off
Versions: 1 2 3 4 5 6 7 8 9 10 11 12 13 14 15 16 17 18 19 20 21 22 23 24 25 26 27 28 29 30 31 32 33 34 35 36 37 38 39 40 41 42 43 44 45 46 47 48 49 50

000
ASUS43 KIND 182309
RWRIN

WEATHER ROUNDUP FOR INDIANA
NATIONAL WEATHER SERVICE INDIANAPOLIS IN
600 PM EST THU JAN 18 2018

NOTE: "FAIR" INDICATES FEW OR NO CLOUDS BELOW 12,000 FEET WITH NO
SIGNIFICANT WEATHER AND/OR OBSTRUCTIONS TO VISIBILITY.

* - STATION DOES NOT REPORT WEATHER SUCH AS PRECIPITATION OR FOG.

+ - STATION NOT QUALITY CONTROLLED BY THE NATIONAL WEATHER SERVICE.
    USE DATA WITH CAUTION...ESPECIALLY DEWPOINT AND RELATIVE
    HUMIDITY OBSERVATIONS.

INZ001>003-010>013-019-020-190000-
NORTHWEST INDIANA

CITY           SKY/WX    TMP DP  RH WIND       PRES   REMARKS
GARY /AIRPORT/ CLEAR     32  19  59 SW12      30.03S WCI  23
KNOX *+        FAIR      28  19  69 SW16      30.06R WCI  17
LA PORTE +     FAIR      27  18  71 SW12G18   30.04S WCI  16
MICHIGAN CITY+ FAIR      30  19  64 S15G24    30.02F WCI  19
MONTICELLO +   FAIR      27  14  59 SW14      30.10R WCI  15
RENSSELAER +   FAIR      28  18  64 SW15      30.09S WCI  17
VALPARAISO     FAIR      29  19  66 SW12      30.04S WCI  19

$$

LMZ046-743>745-190000-
SOUTHERN LAKE MICHIGAN

STATION/POSITION TIME  TEMP    WIND        PRES    WAVE
                       AIR SEA DIR/SP/G            HT
                 (UTC) (F)     (DEG/KT/KT) (MB)    (FT)
BURNS HARBOR     2240   29     210/ 14/ 21 1016.9S
MICHIGAN CITY    2240   30     190/ 21/ 26   N/A

$$

INZ004-005-014>016-021>024-190000-
NORTH CENTRAL INDIANA

CITY           SKY/WX    TMP DP  RH WIND       PRES   REMARKS
ELKHART        FAIR      27  16  63 SW12      30.03S WCI  16
GOSHEN         FAIR      26  15  63 SW17G26   30.04F WCI  13
LOGANSPORT +   FAIR      23  16  74 SW8       30.11S WCI  14
PERU/GRISSOM   FAIR      25  16  67 SW13      30.09F WCI  14
ROCHESTER +    FAIR      30  18  59 SW10      30.08S WCI  21
SOUTH BEND     FAIR      26  17  68 SW21G28   30.02F WCI  12
WARSAW +       FAIR      28  16  59 SW8       30.06S WCI  20

$$

INZ006>009-017-018-025>027-190000-
NORTHEAST INDIANA

CITY           SKY/WX    TMP DP  RH WIND       PRES   REMARKS
AUBURN +       FAIR      27  14  59 SW9       30.06F WCI  17
FORT WAYNE     FAIR      26  15  63 SW15      30.10S WCI  14
HUNTINGTON +   FAIR      26  13  58 SW10      30.09F WCI  16
KENDALLVILLE + FAIR      26  15  64 SW13      30.04S WCI  14

$$

INZ028-029-035-036-043>045-051>053-190000-
WEST CENTRAL INDIANA

CITY           SKY/WX    TMP DP  RH WIND       PRES   REMARKS
CRAWFORDSVL +  FAIR      23  15  69 MISG        N/A
GREENCASTLE +  FAIR      27  12  54 CALM      30.18R
LAFAYETTE      FAIR      27  15  61 SW9       30.12S WCI  18
TERRE HAUTE    FAIR      25  14  63 S12       30.20S WCI  14

$$

INZ030>032-037>040-046>048-054>057-064-065-190000-
CENTRAL INDIANA

CITY           SKY/WX    TMP DP  RH WIND       PRES   REMARKS
COLUMBUS       CLEAR     28  10  47 S10       30.22S WCI  19
FISHERS *+     FAIR      28  18  64 SW7       30.15  WCI  21
FRANKFORT +    FAIR      28  17  65 SW13      30.13F WCI  17
INDIANAPOLIS   FAIR      29  13  51 SW14      30.17S WCI  18
-EAGLE CREEK   FAIR      28  13  53 SW10      30.15F WCI  19
MARION +       FAIR      26  15  63 SW15      30.11F WCI  14
MT COMFORT *+  FAIR      28  18  64 SW9       30.16F WCI  20
SHELBYVILLE    FAIR      29  14  53 S10       30.18S WCI  20
ZIONSVILLE +   FAIR      26  13  58 SW15      30.14S WCI  14

$$

INZ033-034-041-042-049-050-058-059-190000-
EAST CENTRAL INDIANA

CITY           SKY/WX    TMP DP  RH WIND       PRES   REMARKS
MUNCIE         FAIR      31  13  47 SW16      30.12F WCI  20
RICHMOND +     FAIR      27  14  59 SW15      30.16F WCI  15

$$

INZ060-061-067>069-081>083-085>088-190000-
SOUTHWEST INDIANA

CITY           SKY/WX    TMP DP  RH WIND       PRES   REMARKS
EVANSVILLE     NOT AVBL
HUNTINGBURG +  FAIR      26  15  63 S10       30.29F WCI  16
WASHINGTON +   FAIR      27  11  51 S18       30.25F WCI  14

$$

INZ062-063-066-070>080-084-089>092-190000-
SOUTH CENTRAL AND SOUTHEAST INDIANA

CITY           SKY/WX    TMP DP  RH WIND       PRES   REMARKS
BATESVILLE *+    N/A    N/A N/A N/A MISG        N/A
BEDFORD +      FAIR      28  12  50 S8        30.24S WCI  20
BLOOMINGTON    FAIR      30  12  47 S12       30.20F WCI  20
FRENCH LICK *+ FAIR      28   9  43 SW9       30.27F WCI  20
MADISON *+     FAIR      27  14  59 S7        30.27F WCI  19
NORTH VERNON + FAIR      28  12  50 S12       30.23F WCI  18
SEYMOUR +      FAIR      30  12  47 S9        30.25F WCI  22

$$




USA.gov is the U.S. government's official web portal to all federal, state and local government web resources and services.